Location: Althorst
(53.6379°N, 10.7715°E)
Time: 20:02:30
(UTC+00:00)

NOSS 3-4 (C) - Pass Details

Date: 10 December 2019
Orbit: 904 x 1309 km, 63.4° (Epoch: 19 January)

Event Time Altitude Azimuth Distance (km) Brightness Sun altitude
Rises 18:03:25 0° 266° (W) 3,579 7.8 -26.1°
Reaches altitude 10° 18:06:02 10° 274° (W) 2,671 6.8 -26.5°
Maximum altitude 18:11:54 41° 344° (NNW) 1,415 4.4 -27.4°
Enters shadow 18:13:30 36° 16° (NNE) 1,567 4.4 -27.6°
